Home   Weather   Chania   Past weeks

Flag for Greece Past Weather in Chania, Crete, Greece — Yesterday and Last 2 Weeks

Now
77 °F

Sunny.


Feels Like: 78 °F
Forecast: 58 / 79 °F
Wind: 5 mph from Southeast

Location: Souda Airport

Current Time: Apr 28, 2017 at 3:19:29 pm

Latest Report: Apr 28, 2017 at 2:20 pm


Visibility: 10 mi

Pressure: 30.01 "Hg

Humidity: 42%

Dew Point: 52 °F

Location of ChaniaLocation

Past Weather in Chania — Graph

°F

Chania Temperature Yesterday

Maximum temperature yesterday: 70 °F (at 12:50 pm)
Minimum temperature yesterday: 55 °F (at 5:20 am)
Average temperature yesterday: 63 °F

High & Low Weather Summary for the Past Weeks

 TemperatureHumidityPressure
High77 °F (Apr 28, 1:50 pm)100% (Apr 22, 5:50 pm)30.18 "Hg (Apr 22, 5:50 pm)
Low45 °F (Apr 22, 11:50 pm)42% (Apr 28, 1:50 pm)29.80 "Hg (Apr 13, 3:50 pm)
Average61 °F76%30.00 "Hg
* Reported Apr 13 1:20 pm — Apr 28 1:50 pm, Chania, Weather by CustomWeather, © 2017

Note: Actual official high and low records may vary slightly from our data, if they occured in-between our weather recording intervals... More about our weather records

Advertising

Chania Weather History for the Previous 24 Hours

Scroll right to see more
 ConditionsComfort  
Time TempWeatherWind HumidityBarometerVisibility
1:50 pm
Fri, Apr 28
77 °FSunny.5 mph42%30.01 "Hg10 mi
1:20 pm75 °FSunny.5 mph47%30.01 "Hg10 mi
12:50 pm75 °FSunny.5 mph47%30.01 "Hg10 mi
12:20 pm70 °FSunny.5 mph53%30.01 "Hg10 mi
11:50 am70 °FSunny.6 mph53%30.01 "Hg10 mi
10:20 am70 °FSunny.5 mph50%30.01 "Hg10 mi
9:50 am70 °FSunny.5 mph50%30.01 "Hg10 mi
9:20 am66 °FSunny.No wind60%30.01 "Hg10 mi
8:50 am66 °FSunny.No wind60%30.01 "Hg10 mi
8:20 am63 °FSunny.No wind68%30.01 "Hg10 mi
7:50 am59 °FSunny.5 mph68%30.01 "Hg10 mi
7:20 am54 °FSunny.No wind77%30.01 "Hg10 mi
6:50 am52 °FSunny.No wind82%30.01 "Hg10 mi
6:20 am52 °FClear.No wind82%30.01 "Hg10 mi
5:50 am52 °FClear.No wind82%30.01 "Hg10 mi
5:20 am52 °FClear.No wind82%30.01 "Hg10 mi
4:50 am52 °FClear.No wind82%30.01 "Hg10 mi
4:20 am52 °FClear.No wind82%30.01 "Hg10 mi
3:50 am52 °FClear.No wind82%30.01 "Hg10 mi
3:20 am52 °FClear.No wind82%30.01 "Hg10 mi
2:50 am52 °FClear.No wind82%30.01 "Hg10 mi
2:20 am57 °FClear.No wind82%30.04 "Hg10 mi
1:50 am57 °FClear.No wind82%30.04 "Hg10 mi
1:20 am57 °FClear.6 mph82%30.04 "Hg10 mi
12:50 am57 °FClear.6 mph82%30.04 "Hg10 mi
12:20 am57 °FClear.No wind82%30.04 "Hg10 mi
11:50 pm
Thu, Apr 27
57 °FClear.No wind82%30.04 "Hg10 mi
11:20 pm59 °FClear.No wind88%30.04 "Hg10 mi
10:50 pm59 °FClear.No wind88%30.04 "Hg10 mi
10:20 pm59 °FClear.6 mph88%30.04 "Hg10 mi
9:50 pm59 °FClear.6 mph88%30.04 "Hg10 mi
9:20 pm59 °FClear.7 mph82%30.04 "Hg10 mi
8:50 pm61 °FClear.7 mph72%30.01 "Hg10 mi
8:20 pm61 °FClear.8 mph83%30.01 "Hg10 mi
7:50 pm63 °FSunny.9 mph77%30.01 "Hg10 mi
7:20 pm66 °FSunny.8 mph60%30.01 "Hg10 mi
6:50 pm66 °FSunny.12 mph60%30.01 "Hg10 mi
6:20 pm68 °FSunny.8 mph60%30.01 "Hg10 mi
5:50 pm68 °FSunny.10 mph60%30.01 "Hg10 mi
5:20 pm70 °FSunny.9 mph60%30.01 "Hg10 mi
4:50 pm70 °FSunny.10 mph60%30.01 "Hg10 mi
4:20 pm70 °FSunny.12 mph57%30.01 "Hg10 mi
3:50 pm70 °FSunny.12 mph57%30.04 "Hg10 mi
3:20 pm70 °FSunny.12 mph53%30.04 "Hg10 mi
Weather by CustomWeather, © 2017

See weather overviewHow to use our weather pages